Wind_Speed
23 24 24 25 26 25 21 17 17 17 17 14 16 17 16 15 14 15 12 14 13 20 22 22 21 20 21 24 19 31 33 36 32 35 34 28 25 22 23 21 19 18 15 15 15 15 14
21 22 23 23 24 25 25 20 16 16 16 15 13 15 16 15 15 14 13 13 16 16 22 21 20 20 20 19 17 27 29 32 31 30 30 28 24 21 21 19 18 14 17 16 15 14 14
18 19 21 22 23 23 24 23 18 14 14 14 13 13 15 14 14 13 12 13 17 18 19 18 17 17 14 16 25 25 28 29 27 26 25 23 22 22 15 16 15 16 12 15 15 14 14
18 19 19 20 20 20 21 22 22 16 11 11 10 9 11 12 12 12 12 13 16 16 15 14 9 8 11 21 22 22 24 24 24 23 22 21 21 19 15 13 13 15 14 12 12 13 13
16 16 19 20 19 19 19 19 20 20 12 9 8 7 7 10 10 10 11 12 14 14 11 10 6 9 19 20 21 22 22 21 22 21 20 19 19 17 18 13 12 13 8 12 9 10 10
16 17 16 17 19 18 18 18 17 18 17 9 6 5 4 6 9 9 9 10 11 10 7 7 9 7 18 19 20 20 19 20 20 20 18 18 18 18 18 17 11 12 13 10 9 7 9
15 16 17 17 17 18 17 16 17 15 16 12 6 4 3 2 5 8 8 9 8 7 5 2 4 6 17 16 18 18 18 18 18 17 18 20 19 19 16 16 13 8 10 9 9 9 11
17 16 16 17 17 16 17 16 14 15 12 12 8 4 1 1 1 6 8 6 5 6 6 4 6 13 15 17 16 16 16 17 17 17 18 17 18 17 16 15 14 13 12 13 12 13 11
23 21 18 17 17 16 16 16 15 12 13 10 9 5 4 3 4 4 6 5 7 7 5 7 9 13 13 14 15 16 16 16 16 16 17 17 12 16 15 14 13 12 13 14 13 9 12
27 26 24 21 18 17 16 14 16 13 10 11 7 6 4 5 6 7 8 9 7 8 6 9 11 12 12 11 12 15 16 16 16 15 16 13 14 12 15 14 12 12 11 11 11 9 6
33 31 29 26 24 20 17 17 14 15 12 9 9 6 3 6 7 6 10 9 8 5 2 10 13 13 13 14 12 15 15 14 13 12 15 11 12 15 13 12 12 10 10 9 9 10 11
38 35 34 32 30 25 23 19 17 14 14 11 9 9 7 6 8 9 12 9 6 4 6 10 14 14 15 15 13 13 14 15 13 13 14 12 10 11 13 12 12 9 9 8 9 8 3
40 40 39 36 35 32 28 24 21 19 16 15 11 11 10 10 8 9 12 12 6 7 6 8 13 15 16 17 16 15 15 16 13 12 15 14 14 14 14 13 13 13 9 2 2 1 5
44 41 40 40 38 37 34 30 26 23 21 18 16 12 13 12 12 11 12 14 10 7 9 8 12 16 16 16 18 17 16 18 19 15 13 14 9 17 17 16 9 14 12 5 6 3 3
53 49 45 40 41 38 38 34 30 28 25 23 20 18 14 16 15 15 15 16 9 8 10 10 12 17 18 19 14 19 20 20 18 19 13 14 9 12 10 15 14 12 12 11 3 2 2
52 52 46 44 42 41 38 38 34 31 29 26 25 22 18 18 19 19 20 24 15 16 13 10 13 14 14 19 17 16 16 14 19 18 19 11 6 13 15 16 18 15 11 6 8 3 4
45 39 44 48 47 43 39 39 37 32 32 29 27 26 23 20 21 24 29 26 26 23 15 13 14 14 14 14 18 19 9 13 18 18 20 18 14 9 16 17 19 20 20 13 8 5 4
46 41 43 42 48 51 45 40 37 35 32 31 30 29 25 24 24 28 32 30 28 24 20 21 18 20 18 16 16 17 18 14 14 17 19 20 12 10 14 13 14 18 19 20 11 7 8
15 38 47 42 39 37 53 52 45 38 32 31 32 31 30 28 29 32 32 29 28 27 24 23 22 22 22 20 15 19 22 20 17 15 13 18 12 6 2 12 18 21 23 22 24 16 14
32 14 16 35 35 35 29 45 45 48 43 36 35 33 34 35 35 33 31 31 30 28 26 27 27 26 24 25 25 13 22 21 21 21 21 16 17 13 14 6 7 15 23 25 24 16 23
35 34 26 3 19 32 37 35 42 41 44 42 41 39 39 24 34 38 36 32 30 31 30 27 29 29 28 28 26 27 24 25 23 23 23 22 22 23 25 24 20 17 16 18 25 28 29
28 35 33 33 12 28 35 32 31 29 34 38 40 40 42 39 35 30 32 40 37 33 29 31 32 27 32 32 31 29 30 30 25 23 24 26 18 21 23 23 25 28 27 29 31 32 35
25 18 30 24 26 17 29 35 33 28 26 36 34 38 40 40 39 36 35 31 27 28 34 33 28 24 27 26 27 27 25 23 23 21 24 25 22 18 13 22 23 21 31 33 35 37 36
30 21 18 17 14 19 19 33 37 34 30 26 30 30 35 42 38 37 35 32 31 29 25 24 25 30 28 25 26 25 24 23 23 23 22 23 21 17 8 11 4 16 18 20 21 23 24
26 20 22 20 17 16 20 22 35 38 38 35 29 32 33 36 37 37 35 28 26 27 28 28 26 22 24 22 23 22 21 21 24 27 28 26 25 15 8 17 16 16 14 15 16 17 17
26 23 25 27 24 16 20 24 24 33 38 41 39 31 36 40 45 37 32 32 31 29 26 27 25 25 24 24 23 18 15 17 12 15 30 29 28 25 16 7 8 6 12 16 14 19 17
27 26 24 24 26 27 20 20 26 24 31 39 41 42 37 39 38 34 40 37 31 29 29 28 27 26 26 28 29 25 20 16 12 14 17 31 30 32 28 16 14 16 12 12 13 16 12
26 25 25 23 23 20 26 22 23 23 21 29 37 40 40 41 40 34 35 32 34 37 36 34 28 30 31 31 29 21 20 23 22 20 20 25 22 24 27 18 13 17 17 18 16 15 16
26 25 25 23 21 22 24 22 20 18 24 24 27 35 34 37 33 36 38 35 36 36 37 36 37 33 32 27 30 25 22 21 28 24 26 20 25 22 18 12 16 9 10 11 13 15 14
Wind_Direction
20 16 11 17 20 17 13 15 19 18 21 30 48 48 47 55 54 67 72 90 101 100 122 130 141 159 168 171 176 177 173 173 175 172 176 208 203 197 199 203 208 214 221 228 233 240 248
16 19 13 9 15 19 16 14 15 17 19 22 45 58 53 54 60 64 75 92 105 114 117 125 135 147 156 170 180 173 173 171 170 179 189 191 192 199 205 209 211 220 229 231 233 238 240
7 13 16 11 7 13 18 15 14 17 17 22 25 50 57 60 64 70 78 99 108 114 120 121 132 141 161 170 165 170 173 167 166 175 183 185 196 202 211 213 218 223 229 233 233 230 233
357 358 8 14 10 6 11 16 16 13 17 21 27 40 63 61 68 78 90 105 111 112 116 124 147 141 155 157 158 166 169 158 165 173 179 191 200 206 215 215 216 221 229 227 230 230 238
353 355 353 1 9 7 6 9 14 16 11 19 24 37 68 83 77 85 98 110 117 115 118 127 145 147 144 150 153 164 159 161 172 178 187 194 203 211 215 214 209 209 218 221 234 232 238
351 349 351 350 355 4 5 1 8 12 13 9 22 31 63 98 102 101 106 113 125 131 127 123 135 137 154 155 161 162 158 168 179 182 191 200 206 212 214 210 216 220 215 224 225 232 245
338 342 344 346 346 349 356 5 354 7 12 8 1 23 29 88 119 125 127 131 140 155 164 150 168 164 158 162 165 164 167 176 181 186 196 202 205 213 218 216 220 210 210 221 231 241 265
319 325 330 335 339 340 343 348 0 348 3 11 354 340 349 355 159 150 147 147 162 175 207 237 178 158 165 169 170 171 176 182 188 195 199 206 211 213 215 216 220 225 228 234 244 251 263
306 309 314 318 321 331 333 335 340 350 339 354 6 334 284 236 213 225 183 199 188 200 212 184 175 167 167 170 176 177 182 189 193 198 202 209 217 214 213 214 223 231 233 235 243 254 270
298 299 302 304 308 311 319 325 324 331 335 325 338 351 291 240 218 218 216 178 185 197 205 195 179 175 175 174 178 181 187 191 191 199 203 211 213 209 219 222 222 226 229 233 244 256 250
289 292 291 292 294 296 299 306 310 311 315 314 306 311 312 253 236 228 188 193 201 209 19 191 192 186 184 182 181 186 190 193 196 202 196 201 211 216 215 214 215 222 223 234 246 256 266
281 279 283 285 286 286 287 288 294 294 296 298 289 283 281 264 233 221 214 214 225 241 252 191 185 190 187 186 184 186 190 196 199 201 206 210 209 206 210 211 215 219 218 237 256 257 256
272 274 275 275 277 278 279 279 280 282 280 282 279 271 258 262 249 218 216 227 246 230 209 203 197 193 194 199 195 194 198 198 197 189 203 208 212 212 209 210 211 212 203 214 323 294 219
270 265 266 269 270 272 274 272 273 273 275 271 269 262 259 241 247 237 221 219 225 245 211 199 199 197 198 196 200 201 202 204 207 204 191 197 202 210 215 211 214 210 208 212 209 201 243
256 261 263 261 264 264 267 270 267 267 269 269 264 258 249 249 239 235 229 215 225 239 235 222 202 200 202 201 200 204 209 213 213 213 201 200 209 205 209 209 206 207 211 228 226 263 302
259 253 252 255 258 260 261 262 264 263 263 264 264 260 250 243 241 235 231 236 232 234 241 234 221 212 214 207 205 202 207 224 220 215 212 210 188 204 206 205 210 213 210 196 200 148 245
266 261 263 257 253 253 258 259 258 256 260 261 260 258 255 247 235 235 235 242 243 242 242 236 228 226 222 218 216 213 212 223 211 214 212 216 213 206 210 220 227 223 220 217 209 210 176
264 251 252 258 257 254 248 256 259 252 253 257 258 254 255 247 233 236 241 240 244 245 243 239 231 227 228 225 221 219 220 220 215 216 215 212 215 224 225 230 225 228 231 234 224 215 210
231 228 245 242 248 246 249 249 255 254 251 253 254 253 246 242 239 240 244 245 246 243 238 237 234 230 228 229 217 223 230 231 230 221 213 212 211 188 224 241 236 231 233 232 229 233 215
280 330 194 220 233 240 242 247 246 249 251 254 253 247 245 242 241 244 244 245 242 244 240 237 237 231 232 230 223 229 227 234 232 228 223 221 224 223 219 247 228 231 241 234 230 228 241
294 289 324 181 200 227 246 252 249 244 243 244 248 244 244 239 241 241 242 241 244 242 241 238 235 232 234 226 229 228 228 227 224 222 222 222 229 236 243 254 254 242 226 223 229 242 244
311 280 322 313 304 206 231 238 235 247 241 236 235 233 236 238 239 236 234 237 242 239 241 243 241 243 237 233 239 240 233 227 225 221 221 226 231 240 247 250 254 257 253 254 257 258 259
305 300 303 310 308 296 223 228 230 222 243 241 232 232 232 236 236 237 238 240 243 246 247 247 249 245 242 242 238 239 236 234 238 238 235 228 231 239 249 259 267 267 262 261 262 263 263
284 295 305 302 306 295 274 234 227 224 228 234 241 237 234 237 234 236 239 242 238 240 243 243 244 242 244 235 231 232 231 228 232 234 233 235 232 231 248 243 280 262 257 250 247 249 250
294 292 271 283 291 299 265 257 238 229 227 232 230 234 241 243 239 237 238 235 236 239 237 240 239 237 231 229 227 228 227 230 227 234 238 241 237 224 221 202 259 252 234 223 221 241 250
317 295 272 269 272 296 278 255 247 240 230 232 233 235 237 248 249 246 245 243 239 235 235 236 233 234 231 226 218 216 211 221 213 221 231 233 236 229 211 210 220 251 230 234 230 244 242
315 319 286 276 263 267 296 280 252 257 249 240 237 241 241 239 242 244 240 238 240 235 235 236 234 233 231 228 225 225 221 215 215 205 203 212 221 223 228 237 259 248 212 214 226 272 263
318 318 313 291 275 274 290 290 260 246 240 250 243 239 242 242 247 241 240 234 232 234 234 236 231 228 231 222 221 224 229 225 227 232 228 222 207 216 223 221 250 239 235 233 258 267 268
312 318 316 309 290 263 280 280 262 268 242 237 237 233 238 237 240 242 240 238 230 232 231 234 239 236 225 218 222 228 228 226 230 226 228 221 230 224 216 224 234 250 241 246 255 260 256
Height
3141 3138 3133 3128 3123 3119 3115 3111 3106 3103 3099 3094 3089 3087 3085 3082 3080 3078 3077 3075 3074 3075 3075 3078 3081 3087 3092 3096 3100 3103 3108 3115 3120 3126 3132 3136 3141 3144 3147 3149 3151 3152 3153 3154 3155 3156 3157
3143 3138 3135 3130 3124 3121 3116 3112 3108 3105 3101 3098 3093 3090 3088 3086 3083 3082 3081 3080 3079 3078 3080 3084 3088 3091 3095 3099 3099 3104 3109 3114 3119 3125 3130 3134 3139 3143 3146 3147 3149 3149 3151 3151 3152 3153 3154
3143 3139 3135 3131 3127 3122 3118 3114 3110 3107 3103 3100 3096 3092 3090 3089 3088 3086 3085 3085 3084 3085 3086 3089 3092 3095 3097 3100 3102 3106 3110 3113 3118 3125 3132 3136 3139 3143 3144 3146 3145 3147 3149 3149 3150 3151 3151
3143 3140 3135 3131 3128 3124 3119 3115 3112 3108 3105 3103 3100 3096 3093 3092 3091 3091 3090 3089 3089 3090 3091 3093 3096 3098 3098 3101 3104 3109 3113 3114 3119 3125 3130 3134 3137 3140 3141 3142 3143 3144 3146 3146 3147 3148 3149
3143 3139 3136 3133 3128 3125 3121 3117 3113 3109 3106 3103 3102 3099 3097 3095 3094 3093 3093 3093 3093 3094 3095 3096 3098 3099 3100 3103 3106 3110 3112 3115 3120 3124 3129 3132 3134 3136 3138 3140 3142 3142 3142 3143 3145 3145 3146
3142 3139 3135 3132 3129 3125 3122 3119 3115 3111 3107 3105 3102 3101 3099 3097 3097 3096 3096 3096 3096 3097 3098 3099 3100 3103 3103 3105 3108 3110 3112 3116 3120 3123 3126 3129 3131 3133 3136 3138 3138 3138 3139 3140 3142 3144 3144
3142 3139 3136 3132 3129 3126 3122 3118 3116 3112 3109 3106 3103 3102 3101 3100 3098 3098 3098 3098 3102 3102 3100 3101 3101 3100 3103 3106 3109 3110 3113 3117 3119 3122 3124 3127 3129 3131 3134 3135 3136 3136 3137 3138 3140 3141 3141
3141 3138 3135 3132 3128 3126 3123 3118 3115 3113 3110 3107 3105 3102 3101 3101 3100 3099 3099 3099 3100 3102 3101 3100 3101 3102 3104 3106 3108 3110 3113 3117 3118 3119 3122 3126 3127 3129 3131 3132 3133 3134 3135 3136 3138 3138 3139
3138 3136 3133 3130 3129 3124 3122 3120 3114 3112 3110 3107 3105 3103 3101 3100 3100 3100 3099 3099 3099 3100 3101 3101 3101 3102 3104 3106 3107 3109 3112 3113 3116 3118 3120 3122 3125 3126 3128 3129 3130 3131 3133 3134 3136 3135 3135
3132 3131 3130 3127 3124 3124 3120 3117 3116 3110 3108 3107 3105 3103 3101 3100 3101 3099 3099 3099 3100 3100 3101 3101 3100 3102 3103 3104 3107 3108 3110 3113 3114 3116 3118 3121 3122 3124 3125 3127 3128 3129 3131 3131 3132 3133 3133
3125 3124 3123 3122 3120 3118 3117 3114 3111 3111 3106 3104 3103 3102 3100 3099 3098 3099 3100 3099 3099 3100 3100 3099 3098 3099 3100 3103 3105 3105 3108 3109 3111 3113 3117 3118 3119 3121 3123 3124 3126 3127 3128 3129 3129 3129 3129
3117 3115 3115 3115 3114 3112 3111 3110 3108 3106 3105 3102 3100 3100 3098 3098 3097 3097 3098 3098 3099 3101 3094 3093 3093 3095 3098 3099 3101 3103 3105 3108 3109 3111 3113 3115 3117 3119 3121 3121 3123 3124 3126 3127 3126 3126 3126
3106 3106 3106 3105 3106 3105 3104 3103 3102 3101 3099 3099 3096 3096 3095 3095 3095 3094 3095 3097 3099 3094 3092 3090 3090 3091 3094 3096 3098 3100 3102 3104 3106 3108 3109 3112 3114 3115 3117 3118 3120 3121 3123 3125 3127 3127 3123
3095 3093 3094 3095 3095 3097 3096 3095 3095 3094 3094 3093 3093 3091 3092 3091 3092 3091 3092 3094 3093 3088 3087 3086 3087 3089 3091 3093 3095 3096 3098 3100 3102 3103 3105 3108 3112 3111 3112 3114 3116 3118 3120 3120 3127 3125 3119
3077 3081 3082 3082 3083 3084 3087 3087 3085 3087 3086 3087 3086 3086 3086 3087 3086 3087 3089 3087 3084 3083 3084 3084 3085 3086 3088 3089 3092 3093 3095 3096 3097 3100 3103 3103 3105 3106 3108 3110 3114 3114 3116 3117 3117 3119 3119
3060 3064 3065 3068 3070 3071 3073 3076 3077 3077 3078 3079 3079 3079 3080 3081 3082 3081 3082 3079 3079 3079 3080 3081 3082 3083 3083 3085 3087 3088 3090 3090 3092 3095 3097 3099 3101 3103 3105 3107 3109 3110 3112 3114 3115 3120 3117
3047 3051 3052 3052 3055 3057 3061 3063 3065 3067 3068 3071 3071 3071 3072 3074 3074 3074 3071 3072 3073 3076 3077 3079 3078 3079 3080 3081 3083 3084 3086 3087 3088 3090 3093 3095 3098 3101 3102 3102 3103 3106 3106 3109 3111 3110 3109
3031 3036 3035 3038 3039 3043 3046 3051 3053 3056 3058 3060 3062 3063 3064 3065 3067 3064 3061 3064 3068 3070 3072 3073 3074 3075 3076 3078 3079 3082 3083 3084 3085 3088 3090 3092 3093 3095 3097 3097 3099 3100 3101 3103 3105 3105 3104
3016 3016 3020 3022 3025 3027 3031 3035 3040 3044 3046 3049 3050 3054 3054 3056 3055 3055 3056 3057 3060 3063 3066 3066 3069 3070 3072 3074 3077 3077 3078 3081 3083 3085 3086 3088 3089 3091 3093 3096 3094 3093 3094 3096 3098 3099 3098
3010 3003 3003 3004 3011 3015 3017 3021 3024 3030 3035 3039 3041 3042 3044 3045 3046 3048 3050 3049 3051 3055 3058 3061 3062 3064 3067 3068 3070 3071 3072 3075 3077 3080 3081 3083 3084 3084 3085 3085 3087 3087 3088 3090 3092 3093 3089
3002 2998 2995 2992 2995 3000 3007 3011 3014 3015 3020 3026 3028 3030 3032 3032 3035 3040 3042 3042 3044 3046 3050 3053 3054 3056 3058 3061 3063 3065 3068 3069 3070 3072 3075 3077 3077 3080 3082 3082 3083 3083 3084 3084 3084 3085 3084
2994 2993 2991 2989 2986 2987 2993 2998 3004 3006 3007 3011 3014 3019 3021 3023 3027 3031 3032 3033 3036 3040 3042 3044 3046 3051 3051 3052 3055 3057 3060 3062 3065 3067 3069 3071 3072 3074 3074 3075 3075 3074 3077 3079 3078 3078 3076
2989 2986 2986 2985 2980 2981 2984 2989 2994 2998 2998 2997 3003 3007 3010 3012 3017 3020 3021 3027 3030 3033 3035 3038 3042 3043 3044 3048 3049 3051 3054 3057 3059 3060 3062 3064 3066 3068 3067 3069 3069 3064 3064 3067 3068 3067 3069
2984 2983 2981 2979 2974 2976 2978 2980 2984 2988 2989 2991 2995 2998 3001 3002 3007 3010 3014 3018 3022 3025 3027 3030 3033 3036 3039 3041 3043 3045 3048 3049 3050 3053 3055 3056 3059 3062 3062 3064 3065 3055 3054 3058 3059 3059 3060
2977 2974 2976 2973 2972 2973 2971 2972 2975 2978 2980 2983 2985 2988 2991 2992 2999 3002 3007 3009 3013 3017 3020 3023 3026 3029 3032 3036 3039 3040 3042 3044 3043 3046 3048 3051 3053 3055 3056 3056 3052 3051 3050 3052 3053 3055 3056
2973 2969 2968 2970 2969 2966 2965 2964 2966 2969 2971 2974 2978 2979 2981 2985 2988 2996 3000 3001 3005 3009 3014 3016 3019 3022 3026 3029 3032 3031 3033 3035 3037 3037 3039 3044 3048 3051 3049 3049 3046 3041 3043 3046 3048 3049 3050
2969 2965 2962 2961 2961 2960 2959 2958 2958 2960 2962 2964 2968 2972 2974 2975 2979 2984 2987 2992 2998 3001 3005 3009 3012 3015 3018 3020 3023 3025 3026 3028 3029 3029 3031 3034 3039 3041 3043 3041 3037 3036 3040 3043 3046 3046 3044
2964 2961 2957 2954 2953 2953 2951 2950 2949 2950 2951 2954 2957 2962 2965 2968 2971 2974 2977 2982 2986 2991 2996 3001 3006 3006 3011 3015 3017 3017 3018 3019 3021 3023 3024 3027 3031 3033 3036 3037 3034 3030 3033 3038 3039 3039 3039
2959 2957 2954 2950 2947 2946 2944 2944 2944 2945 2943 2945 2948 2953 2956 2960 2962 2965 2968 2973 2978 2983 2988 2990 2994 2997 3002 3005 3006 3009 3010 3011 3011 3014 3017 3021 3022 3023 3028 3025 3026 3027 3029 3030 3032 3032 3033